Location: ????????
(55.1591°N, 39.1782°E)
Time: 13:15:08
(UTC+00:00)

CZ-2C R/B - Pass Details

Date: 14 April 2024
Orbit: 666 x 779 km, 98.4° (Epoch: 23 May)

Event Time Altitude Azimuth Distance (km) Brightness Sun altitude
Rises 00:43:31 0° 18° (NNE) 3,259 6.8 -13.1°
Reaches altitude 10° 00:45:54 10° 23° (NNE) 2,336 6.0 -12.8°
Maximum altitude 00:50:57 51° 100° (E) 981 3.4 -12.3°
Drops below altitude 10° 00:55:58 10° 176° (S) 2,327 4.7 -11.7°
Sets 00:58:20 0° 181° (S) 3,245 5.4 -11.4°
